Time,TemperatureF,DewpointF,PressureIn,WindDirection,WindDirectionDegrees,WindSpeedMPH,WindSpeedGustMPH,Humidity,HourlyPrecipIn,Conditions,Clouds,dailyrainin,SolarRadiationWatts/m^2,SoftwareType,DateUTC
2013-03-08 00:02:00,27.0,25.0,-100.00,NNE,24,0.0,0.0,91,0.00,,,0.00,0.000000,,2013-03-08 05:02:00,
2013-03-08 00:33:00,26.0,24.0,-100.00,North,353,1.0,3.0,92,0.00,,,0.00,0.000000,,2013-03-08 05:33:00,
2013-03-08 00:42:00,26.0,24.0,-100.00,North,353,1.0,3.0,92,0.00,,,0.00,0.000000,,2013-03-08 05:42:00,
2013-03-08 00:52:00,26.0,24.0,-100.00,North,353,1.0,3.0,92,0.00,,,0.00,0.000000,,2013-03-08 05:52:00,
2013-03-08 01:02:00,26.0,24.0,-100.00,North,353,1.0,3.0,92,0.00,,,0.00,0.000000,,2013-03-08 06:02:00,
2013-03-08 01:32:00,26.0,24.0,-100.00,ENE,62,0.0,3.0,93,0.00,,,0.00,0.000000,,2013-03-08 06:32:00,
2013-03-08 01:42:00,26.0,24.0,-100.00,ENE,62,0.0,3.0,93,0.00,,,0.00,0.000000,,2013-03-08 06:42:00,
2013-03-08 01:52:00,26.0,24.0,-100.00,ENE,62,0.0,3.0,93,0.00,,,0.00,0.000000,,2013-03-08 06:52:00,
2013-03-08 02:01:00,26.0,24.0,-100.00,ENE,62,0.0,3.0,93,0.00,,,0.00,0.000000,,2013-03-08 07:01:00,
2013-03-08 02:32:00,24.0,23.0,-100.00,NNE,14,0.0,0.0,95,0.00,,,0.00,0.000000,,2013-03-08 07:32:00,
2013-03-08 02:42:00,24.0,23.0,-100.00,NNE,14,0.0,0.0,95,0.00,,,0.00,0.000000,,2013-03-08 07:42:00,
2013-03-08 02:52:00,24.0,23.0,-100.00,NNE,14,0.0,0.0,95,0.00,,,0.00,0.000000,,2013-03-08 07:52:00,
2013-03-08 03:01:00,24.0,23.0,-100.00,NNE,14,0.0,0.0,95,0.00,,,0.00,0.000000,,2013-03-08 08:01:00,
2013-03-08 03:32:00,24.0,23.0,-100.00,North,11,0.0,0.0,95,0.00,,,0.00,0.000000,,2013-03-08 08:32:00,
2013-03-08 03:42:00,24.0,23.0,-100.00,North,11,0.0,0.0,95,0.00,,,0.00,0.000000,,2013-03-08 08:42:00,
2013-03-08 03:52:00,24.0,23.0,-100.00,North,11,0.0,0.0,95,0.00,,,0.00,0.000000,,2013-03-08 08:52:00,
2013-03-08 04:03:00,24.0,23.0,-100.00,North,11,0.0,0.0,95,0.00,,,0.00,0.000000,,2013-03-08 09:03:00,
2013-03-08 04:32:00,24.0,23.0,-100.00,NNE,26,0.0,0.0,95,0.00,,,0.00,0.000000,,2013-03-08 09:32:00,
2013-03-08 04:42:00,24.0,23.0,-100.00,NNE,26,0.0,0.0,95,0.00,,,0.00,0.000000,,2013-03-08 09:42:00,
2013-03-08 04:52:00,24.0,23.0,-100.00,NNE,26,0.0,0.0,95,0.00,,,0.00,0.000000,,2013-03-08 09:52:00,
2013-03-08 05:01:00,24.0,23.0,-100.00,NNE,26,0.0,0.0,95,0.00,,,0.00,0.000000,,2013-03-08 10:01:00,
2013-03-08 05:32:00,23.0,22.0,-100.00,NNE,31,0.0,0.0,94,0.00,,,0.00,0.000000,,2013-03-08 10:32:00,
2013-03-08 05:42:00,23.0,22.0,-100.00,NNE,31,0.0,0.0,94,0.00,,,0.00,0.000000,,2013-03-08 10:42:00,
2013-03-08 05:52:00,23.0,22.0,-100.00,NNE,31,0.0,0.0,94,0.00,,,0.00,0.000000,,2013-03-08 10:52:00,
2013-03-08 06:01:00,23.0,22.0,-100.00,NNE,31,0.0,0.0,94,0.00,,,0.00,0.000000,,2013-03-08 11:01:00,
2013-03-08 06:32:00,22.0,21.0,-100.00,East,86,0.0,4.0,94,0.00,,,0.00,0.000000,,2013-03-08 11:32:00,
2013-03-08 06:42:00,22.0,21.0,-100.00,East,86,0.0,4.0,94,0.00,,,0.00,0.000000,,2013-03-08 11:42:00,
2013-03-08 06:52:00,22.0,21.0,-100.00,East,86,0.0,4.0,94,0.00,,,0.00,0.000000,,2013-03-08 11:52:00,
2013-03-08 07:02:00,22.0,21.0,-100.00,East,86,0.0,4.0,94,0.00,,,0.00,0.000000,,2013-03-08 12:02:00,
2013-03-08 07:32:00,22.0,21.0,-100.00,NNE,15,0.0,0.0,94,0.00,,,0.00,1.000000,,2013-03-08 12:32:00,
2013-03-08 07:43:00,22.0,21.0,-100.00,NNE,15,0.0,0.0,94,0.00,,,0.00,1.000000,,2013-03-08 12:43:00,
2013-03-08 07:53:00,22.0,21.0,-100.00,NNE,15,0.0,0.0,94,0.00,,,0.00,1.000000,,2013-03-08 12:53:00,
2013-03-08 08:02:00,22.0,21.0,-100.00,NNE,15,0.0,0.0,94,0.00,,,0.00,1.000000,,2013-03-08 13:02:00,
2013-03-08 08:32:00,27.0,25.0,-100.00,SE,127,0.0,0.0,93,0.00,,,-99.99,84.000000,,2013-03-08 13:32:00,
2013-03-08 08:42:00,27.0,25.0,-100.00,SE,127,0.0,0.0,93,0.00,,,-99.99,84.000000,,2013-03-08 13:42:00,
2013-03-08 08:52:00,27.0,25.0,-100.00,SE,127,0.0,0.0,93,0.00,,,-99.99,84.000000,,2013-03-08 13:52:00,
2013-03-08 09:03:00,27.0,25.0,-100.00,SE,127,0.0,0.0,93,0.00,,,-99.99,84.000000,,2013-03-08 14:03:00,
2013-03-08 09:33:00,33.0,28.0,-100.00,SSE,156,3.0,5.0,82,0.00,,,0.00,358.000000,,2013-03-08 14:33:00,
2013-03-08 09:42:00,33.0,28.0,-100.00,SSE,156,3.0,5.0,82,0.00,,,0.00,358.000000,,2013-03-08 14:42:00,
2013-03-08 09:53:00,33.0,28.0,-100.00,SSE,156,3.0,5.0,82,0.00,,,0.00,358.000000,,2013-03-08 14:53:00,
2013-03-08 10:03:00,33.0,28.0,-100.00,SSE,156,3.0,5.0,82,0.00,,,0.00,358.000000,,2013-03-08 15:03:00,
2013-03-08 10:32:00,41.0,30.0,-100.00,South,181,5.0,8.0,65,0.00,,,0.00,585.000000,,2013-03-08 15:32:00,
2013-03-08 10:43:00,41.0,30.0,-100.00,South,181,5.0,8.0,65,0.00,,,0.00,585.000000,,2013-03-08 15:43:00,
2013-03-08 10:53:00,41.0,30.0,-100.00,South,181,5.0,8.0,65,0.00,,,0.00,585.000000,,2013-03-08 15:53:00,
2013-03-08 11:02:00,41.0,30.0,-100.00,South,181,5.0,8.0,65,0.00,,,0.00,585.000000,,2013-03-08 16:02:00,
2013-03-08 11:32:00,49.0,6.0,-100.00,NNW,345,6.0,11.0,17,0.00,,,0.00,747.000000,,2013-03-08 16:32:00,
2013-03-08 11:42:00,49.0,6.0,-100.00,NNW,345,6.0,11.0,17,0.00,,,0.00,747.000000,,2013-03-08 16:42:00,
2013-03-08 11:52:00,49.0,6.0,-100.00,NNW,345,6.0,11.0,17,0.00,,,0.00,747.000000,,2013-03-08 16:52:00,
2013-03-08 12:03:00,49.0,6.0,-100.00,NNW,345,6.0,11.0,17,0.00,,,0.00,747.000000,,2013-03-08 17:03:00,
2013-03-08 12:32:00,51.0,2.0,-100.00,NNW,344,8.0,15.0,13,0.00,,,0.00,890.000000,,2013-03-08 17:32:00,
2013-03-08 12:42:00,51.0,2.0,-100.00,NNW,344,8.0,15.0,13,0.00,,,0.00,890.000000,,2013-03-08 17:42:00,
2013-03-08 12:52:00,51.0,2.0,-100.00,NNW,344,8.0,15.0,13,0.00,,,0.00,890.000000,,2013-03-08 17:52:00,
2013-03-08 13:02:00,51.0,2.0,-100.00,NNW,344,8.0,15.0,13,0.00,,,0.00,890.000000,,2013-03-08 18:02:00,
2013-03-08 13:32:00,55.0,12.0,-100.00,North,350,4.0,11.0,18,0.00,,,0.00,938.000000,,2013-03-08 18:32:00,
2013-03-08 13:42:00,55.0,12.0,-100.00,North,350,4.0,11.0,18,0.00,,,0.00,938.000000,,2013-03-08 18:42:00,
2013-03-08 13:52:00,55.0,12.0,-100.00,North,350,4.0,11.0,18,0.00,,,0.00,938.000000,,2013-03-08 18:52:00,
2013-03-08 14:01:00,55.0,12.0,-100.00,North,350,4.0,11.0,18,0.00,,,0.00,938.000000,,2013-03-08 19:01:00,
2013-03-08 14:32:00,56.0,13.0,-100.00,WNW,297,6.0,11.0,18,0.00,,,0.00,907.000000,,2013-03-08 19:32:00,
2013-03-08 14:42:00,56.0,13.0,-100.00,WNW,297,6.0,11.0,18,0.00,,,0.00,907.000000,,2013-03-08 19:42:00,
2013-03-08 14:52:00,56.0,13.0,-100.00,WNW,297,6.0,11.0,18,0.00,,,0.00,907.000000,,2013-03-08 19:52:00,
2013-03-08 15:01:00,56.0,13.0,-100.00,WNW,297,6.0,11.0,18,0.00,,,0.00,907.000000,,2013-03-08 20:01:00,
2013-03-08 15:32:00,57.0,16.0,-100.00,North,4,7.0,14.0,20,0.00,,,0.00,800.000000,,2013-03-08 20:32:00,
2013-03-08 15:42:00,57.0,16.0,-100.00,North,4,7.0,14.0,20,0.00,,,0.00,800.000000,,2013-03-08 20:42:00,
2013-03-08 15:53:00,57.0,16.0,-100.00,North,4,7.0,14.0,20,0.00,,,0.00,800.000000,,2013-03-08 20:53:00,
2013-03-08 16:02:00,57.0,16.0,-100.00,North,4,7.0,14.0,20,0.00,,,0.00,800.000000,,2013-03-08 21:02:00,
2013-03-08 16:33:00,58.0,15.0,-100.00,North,358,7.0,17.0,18,0.00,,,0.00,636.000000,,2013-03-08 21:33:00,
2013-03-08 16:42:00,58.0,15.0,-100.00,North,358,7.0,17.0,18,0.00,,,0.00,636.000000,,2013-03-08 21:42:00,
2013-03-08 16:52:00,58.0,15.0,-100.00,North,358,7.0,17.0,18,0.00,,,0.00,636.000000,,2013-03-08 21:52:00,
2013-03-08 17:01:00,58.0,15.0,-100.00,North,358,7.0,17.0,18,0.00,,,0.00,636.000000,,2013-03-08 22:01:00,
2013-03-08 17:32:00,58.0,15.0,-100.00,NNW,331,4.0,10.0,18,0.00,,,0.00,418.000000,,2013-03-08 22:32:00,
2013-03-08 17:42:00,58.0,15.0,-100.00,NNW,331,4.0,10.0,18,0.00,,,0.00,418.000000,,2013-03-08 22:42:00,
2013-03-08 17:53:00,58.0,15.0,-100.00,NNW,331,4.0,10.0,18,0.00,,,0.00,418.000000,,2013-03-08 22:53:00,
2013-03-08 18:02:00,58.0,15.0,-100.00,NNW,331,4.0,10.0,18,0.00,,,0.00,418.000000,,2013-03-08 23:02:00,
2013-03-08 18:32:00,55.0,14.0,-100.00,WNW,282,5.0,9.0,19,0.00,,,0.00,183.000000,,2013-03-08 23:32:00,
2013-03-08 18:42:00,55.0,14.0,-100.00,WNW,282,5.0,9.0,19,0.00,,,0.00,183.000000,,2013-03-08 23:42:00,
2013-03-08 18:53:00,55.0,14.0,-100.00,WNW,282,5.0,9.0,19,0.00,,,0.00,183.000000,,2013-03-08 23:53:00,
2013-03-08 19:02:00,55.0,14.0,-100.00,WNW,282,5.0,9.0,19,0.00,,,0.00,183.000000,,2013-03-09 00:02:00,
2013-03-08 19:32:00,47.0,15.0,-100.00,SE,135,0.0,11.0,27,0.00,,,0.00,9.000000,,2013-03-09 00:32:00,
2013-03-08 19:42:00,47.0,15.0,-100.00,SE,135,0.0,11.0,27,0.00,,,0.00,9.000000,,2013-03-09 00:42:00,
2013-03-08 19:52:00,47.0,15.0,-100.00,SE,135,0.0,11.0,27,0.00,,,0.00,9.000000,,2013-03-09 00:52:00,
2013-03-08 20:02:00,47.0,15.0,-100.00,SE,135,0.0,11.0,27,0.00,,,0.00,9.000000,,2013-03-09 01:02:00,
2013-03-08 22:32:00,35.0,23.0,-100.00,NNE,21,0.0,0.0,61,-99.99,,,0.00,0.000000,,2013-03-09 03:32:00,
2013-03-08 22:42:00,35.0,23.0,-100.00,NNE,21,0.0,0.0,61,-99.99,,,0.00,0.000000,,2013-03-09 03:42:00,
2013-03-08 22:52:00,35.0,23.0,-100.00,NNE,21,0.0,0.0,61,-99.99,,,0.00,0.000000,,2013-03-09 03:52:00,
2013-03-08 23:01:00,35.0,23.0,-100.00,NNE,21,0.0,0.0,61,-99.99,,,0.00,0.000000,,2013-03-09 04:01:00,
2013-03-08 23:32:00,32.0,24.0,-100.00,North,6,0.0,0.0,72,0.00,,,0.00,0.000000,,2013-03-09 04:32:00,
2013-03-08 23:42:00,32.0,24.0,-100.00,North,6,0.0,0.0,72,0.00,,,0.00,0.000000,,2013-03-09 04:42:00,
2013-03-08 23:52:00,32.0,24.0,-100.00,North,6,0.0,0.0,72,0.00,,,0.00,0.000000,,2013-03-09 04:52:00,